Location: Unspecified
(58.7730°N, 5.8460°E)
Time: 12:25:34
(UTC+02:00)

CZ-3 Stage 3 - Visible Passes

Search period start: 28 May 2017 00:00
Search period end: 07 June 2017 00:00
Orbit: 407 x 34791 km, 30.8° (Epoch: 27 May)

Date Brightness Start Highest point End Pass type
(mag) Time Alt. Az. Time Alt. Az. Time Alt. Az.
28 May 9.3 23:51:43 10° W 01:13:53 31° WSW 04:58:38 10° W visible
29 May 8.7 20:03:35 10° WSW 21:16:11 51° S 04:04:39 10° SW daylight
30 May 7.8 16:27:59 10° SSW 19:58:58 34° ESE 00:57:20 10° SSE visible
31 May 9.3 23:42:14 10° W 01:02:45 30° WSW 04:43:18 10° W daylight
01 Jun 8.7 19:54:10 10° WSW 21:04:26 51° S 03:51:07 10° SW daylight
02 Jun 7.7 16:18:31 10° SSW 16:48:37 39° SE 00:45:30 10° SSE visible
03 Jun 9.4 23:32:46 10° W 00:51:37 30° WSW 04:27:54 10° W daylight
04 Jun 8.8 19:44:44 10° WSW 20:52:45 51° S 03:37:26 10° SW daylight
05 Jun 7.7 16:09:02 10° SSW 16:37:59 39° SE 00:33:31 10° SSE visible
